• In Russia
  • List of Countries
  • For 7 days
  • Water Temperature
  • Satellite Maps
  • Weather Map
  • Weather Widgets
  • user-avatar
    Login

    Hourly Weather Sharalday

    Today, 24 February, Sunday

    Time Temperature Precipitation Wind Pressure Humidity
    00:00 -11°C° 0 mm 1 mps 708 mmHg 88%
    01:00 -12°C° 0 mm 1 mps 707 mmHg 89%
    02:00 -12°C° 0 mm 1 mps 707 mmHg 90%
    03:00 -13°C° 0 mm 1 mps 707 mmHg 91%
    04:00 -13°C° 0 mm 1 mps 707 mmHg 92%
    05:00 -13°C° 0 mm 1 mps 707 mmHg 92%
    06:00 -14°C° 0 mm 1 mps 707 mmHg 92%
    07:00 -14°C° 0 mm 1 mps 707 mmHg 93%
    08:00 -12°C° 0 mm 1 mps 707 mmHg 88%
    09:00 -12°C° 0 mm 2 mps 707 mmHg 84%
    10:00 -9°C° 0 mm 2 mps 707 mmHg 80%
    11:00 -7°C° 0 mm 2 mps 707 mmHg 77%
    12:00 -6°C° 0 mm 2 mps 706 mmHg 75%
    13:00 -6°C° 0 mm 3 mps 706 mmHg 72%
    14:00 -6°C° 0 mm 3 mps 705 mmHg 74%
    15:00 -6°C° 0 mm 3 mps 705 mmHg 76%
    16:00 -5°C° 0 mm 2 mps 705 mmHg 77%
    17:00 -7°C° 0 mm 2 mps 705 mmHg 81%
    18:00 -9°C° 0 mm 2 mps 705 mmHg 84%
    19:00 -10°C° 0 mm 2 mps 705 mmHg 88%
    20:00 -12°C° 0 mm 2 mps 705 mmHg 88%
    21:00 -10°C° 0 mm 1 mps 705 mmHg 88%
    22:00 -11°C° 0 mm 1 mps 705 mmHg 89%
    23:00 -11°C° 0 mm 1 mps 705 mmHg 89%

    Tomorrow, 25 February, Monday

    Time Temperature Precipitation Wind Pressure Humidity
    00:00 -12°C° 0 mm 1 mps 705 mmHg 88%
    01:00 -12°C° 0 mm 1 mps 705 mmHg 88%
    02:00 -12°C° 0 mm 1 mps 704 mmHg 88%
    03:00 -12°C° 0 mm 1 mps 704 mmHg 87%
    04:00 -13°C° 0 mm 1 mps 704 mmHg 87%
    05:00 -13°C° 0 mm 1 mps 704 mmHg 86%
    06:00 -13°C° 0 mm 1 mps 704 mmHg 86%
    07:00 -13°C° 0 mm 1 mps 703 mmHg 85%
    08:00 -11°C° 0 mm 1 mps 703 mmHg 80%
    09:00 -8°C° 0 mm 1 mps 703 mmHg 74%
    10:00 -7°C° 0 mm 2 mps 703 mmHg 69%
    11:00 -5°C° 0 mm 2 mps 703 mmHg 66%
    12:00 -4°C° 0 mm 2 mps 702 mmHg 64%
    13:00 -4°C° 0 mm 3 mps 702 mmHg 61%
    14:00 -3°C° 0 mm 2 mps 701 mmHg 63%
    15:00 -3°C° 0 mm 2 mps 701 mmHg 65%
    16:00 -3°C° 0 mm 2 mps 701 mmHg 67%
    17:00 -5°C° 0 mm 2 mps 701 mmHg 71%
    18:00 -7°C° 0 mm 2 mps 701 mmHg 74%
    19:00 -8°C° 0 mm 1 mps 701 mmHg 77%
    20:00 -9°C° 0 mm 1 mps 701 mmHg 78%
    21:00 -9°C° 0 mm 1 mps 702 mmHg 79%
    22:00 -10°C° 0 mm 1 mps 702 mmHg 79%
    23:00 -10°C° 0 mm 1 mps 702 mmHg 79%

    Day after tomorrow, 26 February, Tuesday

    Time Temperature Precipitation Wind Pressure Humidity
    00:00 -11°C° 0 mm 1 mps 701 mmHg 79%
    01:00 -11°C° 0 mm 1 mps 701 mmHg 79%
    02:00 -11°C° 0 mm 1 mps 701 mmHg 80%
    03:00 -12°C° 0 mm 1 mps 701 mmHg 81%
    04:00 -12°C° 0 mm 1 mps 701 mmHg 81%
    05:00 -13°C° 0 mm 1 mps 701 mmHg 82%
    06:00 -13°C° 0 mm 1 mps 701 mmHg 82%
    07:00 -13°C° 0 mm 1 mps 701 mmHg 82%
    08:00 -11°C° 0 mm 1 mps 701 mmHg 78%
    09:00 -9°C° 0 mm 1 mps 701 mmHg 73%
    10:00 -6°C° 0 mm 1 mps 701 mmHg 69%
    11:00 -4°C° 0 mm 1 mps 701 mmHg 67%
    12:00 -3°C° 0 mm 1 mps 701 mmHg 66%
    13:00 -4°C° 0 mm 2 mps 700 mmHg 64%
    14:00 -2°C° 0 mm 1 mps 700 mmHg 67%
    15:00 -3°C° 0 mm 1 mps 700 mmHg 69%
    16:00 -3°C° 0 mm 1 mps 700 mmHg 72%
    17:00 -6°C° 0 mm 1 mps 700 mmHg 76%
    18:00 -8°C° 0 mm 0 mps 700 mmHg 79%
    19:00 -10°C° 0 mm 0 mps 700 mmHg 82%
    20:00 -11°C° 0 mm 0 mps 701 mmHg 83%
    21:00 -11°C° 0 mm 0 mps 701 mmHg 83%
    22:00 -11°C° 0 mm 0 mps 701 mmHg 83%
    23:00 -12°C° 0 mm 0 mps 701 mmHg 84%

    27 February, Wednesday

    Time Temperature Precipitation Wind Pressure Humidity
    00:00 -12°C° 0 mm 0 mps 701 mmHg 84%
    01:00 -12°C° 0 mm 0 mps 701 mmHg 85%
    02:00 -13°C° 0 mm 0 mps 701 mmHg 85%
    03:00 -13°C° 0 mm 0 mps 701 mmHg 86%
    04:00 -13°C° 0 mm 0 mps 701 mmHg 87%
    05:00 -13°C° 0 mm 0 mps 701 mmHg 87%
    06:00 -13°C° 0 mm 0 mps 701 mmHg 88%
    07:00 -14°C° 0 mm 0 mps 701 mmHg 88%
    08:00 -11°C° 0 mm 1 mps 702 mmHg 84%
    09:00 -9°C° 0 mm 1 mps 702 mmHg 79%
    10:00 -6°C° 0 mm 1 mps 702 mmHg 75%
    11:00 -4°C° 0 mm 1 mps 701 mmHg 73%
    12:00 -3°C° 0 mm 1 mps 701 mmHg 71%
    13:00 -4°C° 0 mm 2 mps 701 mmHg 69%
    14:00 -2°C° 0 mm 1 mps 700 mmHg 71%
    15:00 -2°C° 0 mm 1 mps 700 mmHg 72%
    16:00 -2°C° 0 mm 1 mps 700 mmHg 74%
    17:00 -4°C° 0 mm 1 mps 700 mmHg 78%
    18:00 -7°C° 0 mm 1 mps 700 mmHg 81%
    19:00 -9°C° 0 mm 1 mps 700 mmHg 84%
    20:00 -9°C° 0 mm 1 mps 700 mmHg 85%
    21:00 -10°C° 0 mm 1 mps 700 mmHg 86%
    22:00 -10°C° 0 mm 1 mps 700 mmHg 87%
    23:00 -11°C° 0 mm 1 mps 700 mmHg 87%

    28 February, Thursday

    Time Temperature Precipitation Wind Pressure Humidity
    00:00 -11°C° 0 mm 1 mps 699 mmHg 87%
    01:00 -11°C° 0 mm 1 mps 699 mmHg 87%
    02:00 -12°C° 0 mm 1 mps 699 mmHg 87%
    03:00 -12°C° 0 mm 1 mps 698 mmHg 86%
    04:00 -12°C° 0 mm 1 mps 698 mmHg 86%
    05:00 -12°C° 0 mm 1 mps 698 mmHg 86%
    06:00 -12°C° 0 mm 1 mps 698 mmHg 86%
    07:00 -13°C° 0 mm 1 mps 698 mmHg 86%
    08:00 -10°C° 0 mm 1 mps 698 mmHg 80%
    09:00 -8°C° 0 mm 1 mps 698 mmHg 74%
    10:00 -7°C° 0 mm 2 mps 698 mmHg 68%
    11:00 -6°C° 0 mm 2 mps 698 mmHg 66%
    12:00 -4°C° 0 mm 2 mps 697 mmHg 64%
    13:00 -3°C° 0 mm 2 mps 697 mmHg 62%
    14:00 -3°C° 0 mm 2 mps 697 mmHg 64%
    15:00 -1°C° 0 mm 1 mps 697 mmHg 66%
    16:00 -2°C° 0 mm 1 mps 696 mmHg 68%
    17:00 -4°C° 0 mm 1 mps 697 mmHg 71%
    18:00 -7°C° 0 mm 1 mps 697 mmHg 74%
    19:00 -9°C° 0 mm 0 mps 697 mmHg 78%
    20:00 -9°C° 0 mm 1 mps 697 mmHg 78%
    21:00 -9°C° 0 mm 1 mps 697 mmHg 79%
    22:00 -9°C° 0 mm 1 mps 698 mmHg 79%
    23:00 -10°C° 0 mm 1 mps 698 mmHg 79%

    1 March, Friday

    Time Temperature Precipitation Wind Pressure Humidity
    00:00 -10°C° 0 mm 1 mps 697 mmHg 79%
    01:00 -10°C° 0 mm 1 mps 697 mmHg 79%
    02:00 -11°C° 0 mm 1 mps 697 mmHg 79%
    03:00 -11°C° 0 mm 1 mps 697 mmHg 79%
    04:00 -11°C° 0 mm 1 mps 697 mmHg 79%
    05:00 -11°C° 0 mm 1 mps 698 mmHg 79%
    06:00 -11°C° 0 mm 1 mps 698 mmHg 79%
    07:00 -11°C° 0 mm 1 mps 698 mmHg 79%
    08:00 -9°C° 0 mm 1 mps 698 mmHg 74%
    09:00 -7°C° 0 mm 0 mps 699 mmHg 69%
    10:00 -4°C° 0 mm 0 mps 699 mmHg 64%
    11:00 -2°C° 0 mm 1 mps 699 mmHg 61%
    12:00 -1°C° 0 mm 1 mps 699 mmHg 59%
    13:00 0°C° 0 mm 1 mps 699 mmHg 57%
    14:00 -1°C° 0 mm 1 mps 699 mmHg 60%
    15:00 -1°C° 0 mm 1 mps 699 mmHg 63%
    16:00 -2°C° 0 mm 1 mps 699 mmHg 66%
    17:00 -4°C° 0 mm 1 mps 699 mmHg 71%
    18:00 -7°C° 0 mm 0 mps 699 mmHg 75%
    19:00 -9°C° 0 mm 0 mps 700 mmHg 79%
    20:00 -9°C° 0 mm 0 mps 700 mmHg 79%
    21:00 -10°C° 0 mm 0 mps 700 mmHg 79%
    22:00 -10°C° 0 mm 0 mps 700 mmHg 79%
    23:00 -10°C° 0 mm 0 mps 700 mmHg 80%
    Show more